Preview of NWS' New Version of Forecast
This preview is not operational and should not be used for support decisions.

Regional Weather Roundup (RWR)

Issued by National Weather Service (NWS)

                            
000
ASUS45 KBOU 170810
RWRCO 

WEATHER ROUNDUP FOR COLORADO
NATIONAL WEATHER SERVICE DENVER/BOULDER CO
100 AM MST SUN FEB 17 2019

NOTE: "FAIR" INDICATES FEW OR NO CLOUDS BELOW 12000 FEET WITH NO
SIGNIFICANT WEATHER AND/OR OBSTRUCTIONS TO VISIBILITY.

COZ001>005-013-030-031-170900-
...NORTHWEST COLORADO...
  
CITY           SKY/WX    TMP DP  RH WIND       PRES   REMARKS
CRAIG          FAIR       5   2  87 CALM      29.80S                  
HAYDEN         FAIR      12   5  73 E8        29.79S WCI   0          
MEEKER         FAIR      14   8  77 E5        29.79S WCI   6          
RANGELY        FAIR      10   6  84 E5        29.83S WCI   2          
RABBIT EARS PA LGT SNOW N/A N/A N/A W7        29.63S                  
STEAMBOAT SPGS CLOUDY    13   8  79 E7        29.76F WCI   3          
WALDEN         CLOUDY     9  -2  61 SW5       29.71R WCI   0          
$$

COZ006>008-011-170900-
...WEST CENTRAL VALLEYS...
  
CITY           SKY/WX    TMP DP  RH WIND       PRES   REMARKS
GRAND JUNCTION FAIR      26  16  65 E12       29.83R WCI  16          
MONTROSE       FAIR      21   9  59 SE9       29.86R WCI  11          
EAGLE          FAIR       1  -3  83 E7        29.85R WCI -12          
RIFLE          CLOUDY    19   9  65 SE5       29.84S WCI  12          
DELTA          FAIR      25  14  62 NE8       29.86R WCI  16          
NUCLA          MOCLDY    23  10  58 E10       29.86S WCI  12          
$$

COZ017>023-064>068-170900-
...SOUTHWEST COLORADO...
  
CITY           SKY/WX    TMP DP  RH WIND       PRES   REMARKS
DURANGO        FAIR       7   0  73 N5        29.82R WCI  -2          
CORTEZ         FAIR      19  11  70 N3        29.84R                  
PAGOSA SPRINGS NOT AVBL                                               
TELLURIDE      MOCLDY     7   0  72 E6        29.78R WCI  -3          
WOLF CREEK PAS MOCLDY    -4  -9  77 S5        29.72R WCI -15          
$$

COZ009-010-012-014-032>034-037-058>063-170900-
...CENTRAL COLORADO...
  
CITY           SKY/WX    TMP DP  RH WIND       PRES   REMARKS
ASPEN          FAIR       6  -1  73 SW7       29.76S WCI  -6          
BUENA VISTA    FAIR       8  -1  66 W6        29.75R WCI  -3          
COPPER MTN     CLOUDY     1  -6  71 NW10      29.60R WCI -14          
BERTHOUD PASS  CLOUDY    -8 -17  65 N14G26    29.54R WCI -28          
COTTONWOOD PAS FAIR      10  -6  48 W22G32    29.67R WCI  -9          
GUNNISON       MOCLDY    -9 -12  87 CALM      29.83R                  
GRANBY         CLOUDY     6   1  80 SE6       29.73R WCI  -5          
KREMMLING      MOCLDY     9   5  85 CALM      29.77S                  
LEADVILLE      CLOUDY     2  -4  76 VRB6      29.67R WCI  -9          
MONARCH PASS   FAIR      -2  -8  78 MISG      29.73S                  
SALIDA         FAIR      18  -1  44 NW7       29.83S WCI   8          
SUNLIGHT         N/A    N/A N/A N/A MISG      29.72R                  
WILKERSON PASS FAIR       1  -9  60 W9G18     29.62R WCI -14          
$$

COZ069>075-170900-
...SAN LUIS VALLEY/SANGRE DE CRISTO MOUNTAINS...
  
CITY           SKY/WX    TMP DP  RH WIND       PRES   REMARKS
ALAMOSA        FAIR       3  -1  83 W8        29.79R WCI -10          
DEL NORTE      FAIR       8  -4  59 W10       29.78S WCI  -7          
LA VETA PASS   NOT AVBL                                               
SAGUACHE       FAIR       9   1  72 CALM      29.78S                  
$$

COZ035-036-038>040-170900-
...NORTHERN COLORADO FRONT RANGE...
  
CITY           SKY/WX    TMP DP  RH WIND       PRES   REMARKS
DENVER INTL AP FAIR      20   2  45 SW8       29.72S WCI  10          
AURORA         PTCLDY    21  -1  38 W5        29.73R WCI  15          
FRONT RANGE AP NOT AVBL                                               
ERIE MUNI ARPT FAIR      26   3  38 NW7       29.79R WCI  18          
BOULDER MUN AP FAIR      28   0  29 NW7       29.72S WCI  21          
CENTENNIAL     FAIR      18   2  49 W6        29.72S WCI  10          
BROOMFIELD     FAIR      28   1  31 NW14      29.73R WCI  17          
FORT COLLINS   FAIR      23   1  38 NW7       29.73R WCI  15          
LONGMONT       FAIR      26   1  33 CALM      29.75R                  
$$

COZ041-046-047-076>085-087-088-170900-
...PIKES PEAK/PALMER DIVIDE AND SOUTHERN FOOTHILLS...
  
CITY           SKY/WX    TMP DP  RH WIND       PRES   REMARKS
COLO. SPRINGS  FAIR      22  -2  35 NW10      29.73R WCI  11          
A. F. ACADEMY  FAIR      22  -6  27 NW10G22   29.72R WCI  12          
SCHRIEVER AFB  NOT AVBL                                               
CHEYENNE MTN   FAIR      21  -8  27 S6        29.65R WCI  14          
ELLICOTT       NOT AVBL                                               
FALCON         FAIR      14  -3  47 NW9       29.72R WCI   1          
FORT CARSON    FAIR      19  -1  42 NE6       29.72R WCI  11          
LIMON          FAIR      15   7  70 NW7       29.74R WCI   5          
MONUMENT HILL  FAIR      10   0  61 W7        29.72R WCI   0          
CANON CITY     NOT AVBL                                               
WALSENBURG     NOT AVBL                                               
TRINIDAD       FAIR      17  13  84 W9        29.76R WCI   6          
$$

COZ042>045-048>051-090-091-170900-
...NORTHEAST COLORADO...
  
CITY           SKY/WX    TMP DP  RH WIND       PRES   REMARKS
GREELEY ARPT   FAIR      19   7  59 NE5       29.75R WCI  12          
AKRON          FAIR      20  16  84 NW12      29.72R WCI   8          
BURLINGTON     FAIR      20  17  88 NW12      29.74R WCI   8          
WRAY           CLOUDY    23  19  86 N7        29.76R WCI  15          
YUMA           FAIR      23  16  74 NW8       29.73S WCI  14          
STERLING       FAIR      21  18  86 NW6       29.74R WCI  14          
HOLYOKE        FAIR      19  14  79 N15       29.76R WCI   5          
FORT MORGAN      N/A     18  16  90 N13       29.74S WCI   5          
$$

COZ086-089-092>099-170900-
...SOUTHEAST COLORADO...
  
CITY           SKY/WX    TMP DP  RH WIND       PRES   REMARKS
PUEBLO         FAIR      18   8  65 CALM      29.76S                  
LA JUNTA       FAIR      23  19  85 W12       29.77R WCI  12          
LAMAR          FAIR      24  19  81 W12       29.76R WCI  13          
SPRINGFIELD      N/A     20  18  92 W10       29.76R WCI   9          
$$